[[{"header":{"parameterUnit":"m.s-1","parameterCategory":1,"la1":30.2991,"la2":30.254,"lo1":-89.0895,"lo2":-89.0444,"dy":0.0017,"dx":0.0017,"nx":28,"ny":28,"refTime":"2024-05-30T03:00:00:Z","depth":0,"parameterNumber":2,"parameterNumberName":"U-component_of_WINDS"},"data":[0,0,0,0,0,0,0,0,0,0,0,0,0,0,0,0,0,0,0,0,0,0,0,0,0,0,0,0,0,0,0,0,0,0,0,0,0,0,0,0,0,0,0,0,0,0,0,0,0,0,0,0,0,0,0,0,0,0,-2.7021,-2.7021,0,-2.7036,-2.7036,-2.7036,-2.7,-2.6999,-2.6998,-2.6997,-2.701,-2.7012,-2.7013,0,0,0,0,0,0,0,0,0,0,0,0,0,-2.696,-2.6961,-2.7021,-2.7021,-2.7021,-2.7036,-2.7036,-2.7036,-2.7,-2.6999,-2.6998,-2.6996,-2.701,-2.7012,-2.7013,0,0,0,0,0,0,0,0,0,0,0,0,0,-2.6981,-2.6961,-2.7021,-2.7005,-2.7004,-2.7036,-2.7036,-2.7036,-2.7001,-2.6999,-2.6997,-2.6996,-2.7009,-2.7012,-2.7014,-2.706,0,0,-2.702,-2.7021,0,0,0,0,0,0,0,0,-2.698,-2.6984,-2.7007,-2.7006,-2.7005,-2.7014,-2.7019,-2.7044,-2.7001,-2.7002,-2.6997,-2.6995,-2.7013,-2.7015,-2.7021,-2.7061,-2.7062,-2.702,-2.7022,-2.7022,-2.7023,0,0,0,0,0,0,0,-2.6979,-2.6983,-2.7026,-2.7008,-2.7006,-2.6997,-2.6998,-2.7024,-2.7017,-2.7002,-2.6999,-2.7001,-2.7012,-2.7019,-2.7021,-2.7062,-2.702,-2.7022,-2.7023,-2.7024,-2.714,-2.7142,0,0,0,0,0,0,-2.6979,-2.6982,-2.7026,-2.7027,-2.6988,-2.6999,-2.7001,-2.7013,-2.7016,-2.7015,-2.7003,-2.7,-2.7016,-2.7019,-2.7022,-2.7076,-2.7022,-2.7024,-2.7026,-2.7138,-2.7141,-2.7142,0,0,0,0,0,0,-2.6978,-2.6984,-2.7025,-2.7004,-2.7008,-2.7002,-2.7016,-2.7014,-2.7021,-2.7017,-2.7016,-2.7012,-2.7015,-2.7019,-2.7051,-2.7076,-2.7025,-2.7027,-2.7136,-2.7139,-2.7142,-2.7185,0,0,0,0,0,0,-2.6977,-2.6984,-2.7002,-2.7004,-2.701,-2.7055,-2.7018,-2.7016,-2.7025,-2.7021,-2.7025,-2.7024,-2.7014,-2.7048,-2.7053,-2.7078,-2.7029,-2.7134,-2.7137,-2.7141,-2.7181,-2.7189,-2.7195,0,0,0,0,0,-2.6975,-2.7013,-2.7003,-2.7008,-2.7032,-2.7057,-2.7059,-2.7048,-2.7027,-2.7045,-2.7043,-2.7024,-2.7073,-2.7052,-2.7057,-2.7083,-2.7132,-2.7136,-2.714,-2.7178,-2.7187,-2.7195,0,0,0,0,0,0,-2.7013,-2.7013,-2.7002,-2.7042,-2.705,-2.7051,-2.7072,-2.7058,-2.7071,-2.7067,-2.7051,-2.7053,-2.7088,-2.7089,-2.7065,-2.7128,-2.7099,-2.7104,-2.7125,-2.7134,-2.7141,-2.7139,-2.7031,0,0,0,0,0,-2.7026,-2.7046,-2.7045,-2.7081,-2.7086,-2.7079,-2.7089,-2.7079,-2.7086,-2.7089,-2.7089,-2.7096,-2.7112,-2.7124,-2.7139,-2.7182,-2.7181,-2.7202,-2.7209,-2.7215,-2.7219,-2.7241,-2.7249,-2.7156,-2.7156,-2.7156,0,0,-2.7053,-2.7056,-2.7069,-2.7089,-2.7094,-2.7114,-2.7081,-2.7105,-2.712,-2.7092,-2.7123,-2.7123,-2.713,-2.7167,-2.7184,-2.7169,-2.7245,-2.722,-2.7225,-2.7226,-2.7246,-2.7255,-2.7262,-2.7159,-2.7158,-2.7158,0,0,-2.7113,-2.7118,-2.7147,-2.7153,-2.7161,-2.7156,-2.7163,-2.7167,-2.7166,-2.7196,-2.7176,-2.7193,-2.7223,-2.7228,-2.7235,-2.7297,-2.728,-2.7303,-2.7339,-2.736,-2.7367,-2.7374,-2.7395,-2.7403,-2.7308,-2.7308,-2.7308,0,-2.7145,-2.7176,-2.7164,-2.7189,-2.7198,-2.7175,-2.7205,-2.7211,-2.7223,-2.7229,-2.7213,-2.7249,-2.7252,-2.729,-2.7305,-2.7312,-2.7319,-2.7301,-2.7367,-2.7374,-2.7379,-2.7399,-2.7407,-2.731,-2.731,-2.731,-2.7309,0,-2.7215,-2.7237,-2.726,-2.7273,-2.7284,-2.7311,-2.7303,-2.7316,-2.7306,-2.7303,-2.7334,-2.7337,-2.7352,-2.7361,-2.7351,-2.7397,-2.7388,-2.737,-2.734,-2.7391,-2.7409,-2.7417,-2.7314,-2.7313,-2.7312,-2.7312,0,0,-2.7297,-2.7304,-2.7313,-2.7318,-2.7325,-2.7341,-2.7367,-2.7383,-2.7394,-2.7403,-2.7424,-2.745,-2.7433,-2.7441,-2.7431,-2.745,-2.7498,-2.743,-2.743,-2.7441,-2.7548,-2.756,-2.7569,-2.7488,-2.7489,-2.749,-2.7547,0,-2.7355,-2.74,-2.7391,-2.7434,-2.7454,-2.7433,-2.7455,-2.7462,-2.746,-2.7476,-2.7473,-2.7491,-2.7469,-2.7473,-2.7491,-2.7489,-2.7519,-2.7485,-2.7505,-2.7506,-2.7502,-2.7579,-2.7592,-2.7645,-2.7554,-2.7555,-2.7556,0,-2.7428,-2.7441,-2.7487,-2.7491,-2.7498,-2.7519,-2.7532,-2.7548,-2.7554,-2.7552,-2.7561,-2.7548,-2.7573,-2.7544,-2.7578,-2.7555,-2.7563,-2.7563,-2.7565,-2.7565,-2.7533,-2.7579,-2.7662,-2.7669,-2.7567,-2.7567,-2.7566,0,-2.7482,-2.7511,-2.7541,-2.7547,-2.7553,-2.7567,-2.757,-2.7575,-2.7585,-2.7597,-2.7603,-2.7617,-2.7625,-2.7636,-2.7627,-2.7607,-2.7662,-2.7633,-2.7659,-2.7659,-2.7669,-2.7669,-2.7753,-2.7678,-2.7678,-2.7678,-2.7678,0,-2.7547,-2.7575,-2.7566,-2.7584,-2.7615,-2.7605,-2.7635,-2.7636,-2.7641,-2.7659,-2.7642,-2.7659,-2.7647,-2.7663,-2.7657,-2.7685,-2.7689,-2.7687,-2.7684,-2.7687,-2.7687,-2.7691,-2.7686,-2.768,-2.7679,-2.7679,-2.7679,0,-2.7611,-2.7606,-2.7638,-2.7641,-2.7643,-2.7665,-2.7667,-2.7684,-2.7682,-2.7705,-2.7709,-2.7705,-2.7723,-2.7715,-2.7735,-2.773,-2.7766,-2.7759,-2.7763,-2.7761,-2.7787,-2.7784,-2.7875,-2.7886,-2.7806,-2.7806,-2.7807,0,-2.7652,-2.7673,-2.7679,-2.769,-2.7694,-2.7712,-2.7722,-2.7712,-2.7723,-2.7733,-2.7749,-2.7765,-2.7778,-2.7808,-2.7805,-2.782,-2.7813,-2.7844,-2.7814,-2.7817,-2.7811,-2.7809,-2.7811,-2.7849,-2.785,-2.785,-2.7851,0,-2.7724,-2.7721,-2.7736,-2.775,-2.7763,-2.7774,-2.7783,-2.7793,-2.7784,-2.7797,-2.7815,-2.7825,-2.7845,-2.7861,-2.7874,-2.7876,-2.7862,-2.7861,-2.7867,-2.7869,-2.787,-2.7868,-2.7777,-2.7858,-2.7857,-2.7857,-2.7856,-2.7856,-2.7777,-2.7794,-2.7801,-2.7818,-2.7825,-2.7834,-2.785,-2.7849,-2.7865,-2.788,-2.7873,-2.7894,-2.79,-2.7916,-2.7921,-2.7936,-2.7924,-2.7934,-2.7936,-2.7938,-2.7941,-2.7869,-2.7939,-2.7939,-2.7939,-2.7938,-2.7938,0,-2.7847,-2.785,-2.7867,-2.788,-2.7894,-2.788,-2.789,-2.7902,-2.7921,-2.7928,-2.7941,-2.7962,-2.7978,-2.7977,-2.7992,-2.8004,-2.7998,-2.8008,-2.8006,-2.8007,-2.7952,-2.7944,-2.8013,-2.8013,-2.8013,-2.8013,-2.8013,-2.8013,-2.7885,-2.7914,-2.7911,-2.7943,-2.7946,-2.7967,-2.7973,-2.7981,-2.7987,-2.8011,-2.8024,-2.8024,-2.8028,-2.8043,-2.8056,-2.8056,-2.8061,-2.8074,-2.807,-2.8018,-2.8011,-2.8004,-2.7996,-2.8075,-2.8075,-2.8124,-2.8124,-2.8125]},{"header":{"parameterUnit":"m.s-1","parameterCategory":1,"la1":30.2991,"la2":30.254,"lo1":-89.0895,"lo2":-89.0444,"dy":0.0017,"dx":0.0017,"nx":28,"ny":28,"refTime":"2024-05-30T03:00:00:Z","depth":0,"parameterNumber":3,"parameterNumberName":"V-component_of_WINDS"},"data":[0,0,0,0,0,0,0,0,0,0,0,0,0,0,0,0,0,0,0,0,0,0,0,0,0,0,0,0,0,0,0,0,0,0,0,0,0,0,0,0,0,0,0,0,0,0,0,0,0,0,0,0,0,0,0,0,0,0,3.3517,3.3517,0,3.3531,3.3532,3.3532,3.3463,3.3461,3.3459,3.3458,3.347,3.3472,3.3474,0,0,0,0,0,0,0,0,0,0,0,0,0,3.3427,3.3429,3.3516,3.3517,3.3517,3.3531,3.3532,3.3532,3.3464,3.3461,3.3459,3.3457,3.3469,3.3472,3.3475,0,0,0,0,0,0,0,0,0,0,0,0,0,3.3456,3.3429,3.3516,3.3485,3.3482,3.3531,3.3532,3.3532,3.3464,3.3461,3.3458,3.3456,3.3469,3.3472,3.3475,3.3555,0,0,3.3485,3.3486,0,0,0,0,0,0,0,0,3.3455,3.3459,3.3489,3.3487,3.3484,3.3493,3.3504,3.3539,3.3465,3.3471,3.3458,3.3454,3.348,3.3482,3.3491,3.3555,3.3556,3.3485,3.3487,3.3489,3.349,0,0,0,0,0,0,0,3.3453,3.3458,3.3522,3.349,3.3487,3.3469,3.347,3.3511,3.3492,3.347,3.3465,3.3468,3.3478,3.3488,3.3491,3.3556,3.3485,3.3488,3.349,3.3491,3.3686,3.3689,0,0,0,0,0,0,3.3455,3.3457,3.3522,3.3523,3.3462,3.3473,3.3474,3.3493,3.3491,3.3488,3.3471,3.3465,3.3484,3.3487,3.3491,3.3584,3.3489,3.3492,3.3494,3.3682,3.3686,3.369,0,0,0,0,0,0,3.3453,3.3462,3.3521,3.3489,3.3495,3.3478,3.3499,3.3495,3.3505,3.3492,3.3488,3.3485,3.3482,3.3487,3.3539,3.3583,3.3493,3.3496,3.3679,3.3684,3.3688,3.377,0,0,0,0,0,0,3.3451,3.3461,3.3492,3.349,3.3497,3.357,3.3502,3.3497,3.3511,3.3504,3.3504,3.3501,3.348,3.3535,3.3543,3.3586,3.3499,3.3675,3.3681,3.3687,3.3763,3.3777,3.3789,0,0,0,0,0,3.3448,3.3514,3.3494,3.3502,3.3535,3.3573,3.3577,3.3552,3.3515,3.3545,3.3537,3.3501,3.3578,3.3541,3.3549,3.3594,3.3672,3.3679,3.3686,3.3757,3.3774,3.3788,0,0,0,0,0,0,3.352,3.3513,3.3491,3.3558,3.3567,3.3561,3.3598,3.357,3.3589,3.3581,3.3549,3.355,3.3608,3.3606,3.3566,3.3671,3.3618,3.3627,3.367,3.3685,3.3698,3.3696,3.3501,0,0,0,0,0,3.3544,3.3576,3.3568,3.3628,3.3633,3.3616,3.3631,3.3611,3.3619,3.3622,3.3617,3.3625,3.3651,3.3668,3.3691,3.3763,3.3762,3.3798,3.3811,3.3821,3.3829,3.3867,3.3883,3.3713,3.3713,3.3713,0,0,3.3593,3.3593,3.3615,3.3642,3.3646,3.368,3.3619,3.3656,3.368,3.3627,3.3677,3.3674,3.368,3.3743,3.3771,3.3744,3.3876,3.3831,3.3839,3.3841,3.3876,3.3892,3.3906,3.3718,3.3717,3.3717,0,0,3.3699,3.3703,3.3753,3.3759,3.3767,3.3755,3.3767,3.3767,3.3763,3.3813,3.3773,3.3801,3.3847,3.3853,3.3862,3.3972,3.394,3.3981,3.4046,3.4084,3.4097,3.4108,3.4147,3.4161,3.3989,3.3989,3.3989,0,3.3758,3.3807,3.3782,3.3822,3.3835,3.379,3.384,3.3847,3.3862,3.3872,3.3842,3.3898,3.3899,3.3963,3.399,3.3999,3.4011,3.398,3.4097,3.4109,3.4119,3.4155,3.417,3.3994,3.3993,3.3993,3.3992,0,3.388,3.3915,3.3954,3.3971,3.3988,3.4034,3.4014,3.4035,3.4014,3.4005,3.4056,3.4057,3.4079,3.4093,3.4073,3.4154,3.4137,3.4103,3.4049,3.4141,3.4174,3.4188,3.4001,3.3999,3.3998,3.3996,0,0,3.4029,3.4033,3.4047,3.4054,3.4061,3.4087,3.413,3.4153,3.4171,3.4184,3.4218,3.4258,3.4227,3.4238,3.4218,3.4251,3.4337,3.4213,3.4212,3.4235,3.4426,3.445,3.4467,3.4317,3.4319,3.4321,3.4425,0,3.4132,3.4207,3.4186,3.426,3.4292,3.425,3.4288,3.4295,3.4288,3.4314,3.4306,3.4334,3.4291,3.4297,3.4328,3.432,3.4375,3.4313,3.4348,3.4349,3.4346,3.4485,3.451,3.4608,3.4438,3.444,3.4442,0,3.4262,3.4281,3.4359,3.436,3.4373,3.4407,3.4426,3.4452,3.4459,3.4452,3.4465,3.4439,3.448,3.4428,3.4485,3.4443,3.4456,3.4455,3.4458,3.4459,3.44,3.4488,3.4639,3.4653,3.4462,3.4461,3.4459,0,3.4362,3.4407,3.4459,3.4467,3.447,3.4495,3.4498,3.4503,3.4518,3.4535,3.4544,3.4566,3.4577,3.4594,3.4574,3.4538,3.4634,3.458,3.4628,3.4629,3.4649,3.4647,3.4802,3.466,3.466,3.4659,3.4659,0,3.4478,3.4527,3.4504,3.4536,3.459,3.4565,3.4619,3.4616,3.4622,3.4652,3.4617,3.4646,3.4619,3.4646,3.463,3.4679,3.4685,3.4679,3.4675,3.4682,3.4682,3.4689,3.4681,3.4663,3.4662,3.4662,3.4661,0,3.4598,3.4585,3.4639,3.4639,3.464,3.4679,3.4678,3.4708,3.4699,3.4738,3.4746,3.4732,3.4761,3.4744,3.4773,3.4763,3.4827,3.4813,3.4824,3.482,3.4869,3.4864,3.5032,3.5053,3.4898,3.49,3.4901,0,3.4673,3.471,3.4714,3.4732,3.4738,3.4768,3.4783,3.4761,3.4779,3.4791,3.4819,3.4846,3.4865,3.4914,3.4906,3.4929,3.4915,3.4972,3.4918,3.4924,3.4914,3.4912,3.4915,3.4983,3.4985,3.4986,3.4987,0,3.4806,3.4798,3.4823,3.4846,3.4866,3.4882,3.4896,3.4913,3.489,3.4912,3.4942,3.4958,3.4989,3.5016,3.5035,3.5037,3.5008,3.5005,3.5017,3.5024,3.5029,3.5026,3.4853,3.5001,3.4999,3.4998,3.4997,3.4997,3.4905,3.4936,3.4944,3.4972,3.4981,3.4995,3.5022,3.5018,3.5043,3.5067,3.5052,3.5088,3.5095,3.5118,3.5124,3.5151,3.5127,3.5145,3.5149,3.5154,3.516,3.5026,3.5154,3.5154,3.5153,3.5153,3.5153,0,3.5035,3.5039,3.5066,3.5087,3.5109,3.5082,3.5096,3.5116,3.5149,3.5158,3.5179,3.5214,3.524,3.5235,3.5259,3.5281,3.5269,3.5288,3.5285,3.5286,3.518,3.5167,3.5298,3.5298,3.5298,3.5298,3.5298,3.5298,3.5106,3.5157,3.515,3.5204,3.5207,3.5243,3.5253,3.5265,3.5273,3.5314,3.5336,3.5333,3.5336,3.536,3.5383,3.538,3.539,3.5414,3.5407,3.5308,3.5293,3.528,3.5267,3.5417,3.5417,3.551,3.5511,3.5512]}]]